GW0959 Weather Reports


time (UTC)temp
F
wind
direction
speed
knots
gust
knots
rain 1hr
in
rain 24hr
in
rain mn
in
humidity
%
barometer
mb
20260506091929 51 160 0.0 0.0 0.00 0.01 0.00 95 1019.6
20260506091423 51 159 0.0 0.0 0.00 0.01 0.00 95 1019.6
20260506090919 51 160 0.0 0.0 0.00 0.01 0.00 95 1019.7
20260506090413 51 160 0.0 0.0 0.00 0.01 0.00 95 1019.7
20260506085907 51 160 0.0 0.0 0.00 0.01 0.00 95 1019.7
20260506085400 51 160 0.0 0.0 0.00 0.01 0.00 95 1019.7
20260506085113 51 159 0.0 0.0 0.00 0.01 0.00 95 1019.7
20260506084348 51 159 0.0 0.0 0.00 0.01 0.00 95 1019.6
20260506083844 51 160 0.0 0.0 0.00 0.01 0.00 95 1019.7
20260506083336 51 160 0.0 0.0 0.00 0.02 0.00 95 1019.7
20260506082830 51 159 0.0 0.0 0.00 0.02 0.00 95 1019.7
20260506082324 51 160 0.0 0.0 0.00 0.03 0.00 95 1019.7
20260506082305 51 159 0.0 0.0 0.00 0.03 0.00 95 1019.7
20260506081313 51 160 0.0 0.0 0.00 0.03 0.00 95 1019.7
20260506080806 51 160 0.0 0.0 0.00 0.03 0.00 95 1019.7
20260506080259 51 159 0.0 0.0 0.00 0.03 0.00 95 1019.6
20260506073224 51 159 0.0 0.0 0.00 0.03 0.00 95 1019.5
20260506072718 51 160 0.0 0.0 0.00 0.03 0.00 95 1019.5
20260506072212 51 160 0.0 0.0 0.00 0.03 0.00 95 1019.4
20260506071708 51 159 0.0 0.0 0.00 0.03 0.00 94 1019.4
20260506071202 51 159 0.0 0.0 0.00 0.03 0.00 94 1019.4
20260506070655 51 159 0.0 0.0 0.00 0.03 0.00 94 1019.3
20260506070149 51 159 0.0 0.0 0.00 0.03 0.00 94 1019.3
20260506062100 51 158 0.0 0.0 0.00 0.04 0.03 94 1019.0
20260506061554 51 158 0.0 0.0 0.00 0.04 0.03 94 1018.9
20260506061048 51 158 0.0 0.0 0.00 0.04 0.03 94 1018.8
20260506060542 51 158 0.0 0.0 0.00 0.05 0.03 94 1018.8
20260506060259 51 158 0.0 0.0 0.00 0.05 0.03 94 1018.7
20260506050936 51 158 0.0 0.0 0.00 0.08 0.03 94 1018.3
20260506050430 51 158 0.0 0.0 0.00 0.09 0.03 94 1018.2
20260506044915 51 158 0.0 0.0 0.00 0.13 0.03 94 1018.2
20260506044406 51 159 0.0 0.0 0.00 0.13 0.03 94 1018.2
20260506043900 51 160 0.0 0.0 0.00 0.14 0.03 94 1018.2
20260506043612 51 159 0.0 0.0 0.00 0.14 0.03 94 1018.2
20260506042848 51 159 0.0 0.0 0.00 0.14 0.03 94 1018.0
20260506042342 51 160 0.0 0.0 0.00 0.14 0.03 94 1018.1
20260506041836 51 160 0.0 0.0 0.00 0.14 0.03 94 1018.0
20260506041330 51 159 0.0 0.0 0.00 0.14 0.03 94 1018.0
20260506040826 51 160 0.0 0.0 0.00 0.14 0.03 93 1017.9
20260506040539 51 159 0.0 0.0 0.00 0.14 0.03 93 1017.9
20260506035812 51 160 0.0 0.0 0.00 0.15 0.03 93 1017.6
20260506035533 51 159 0.0 0.0 0.00 0.15 0.03 93 1017.5
20260506034800 51 160 0.0 0.0 0.00 0.17 0.03 93 1017.5
20260506034256 51 160 0.0 0.0 0.00 0.19 0.03 93 1017.4
20260506033749 51 159 0.0 0.0 0.00 0.20 0.03 93 1017.5
20260506033242 51 159 0.0 0.0 0.00 0.22 0.03 93 1017.4
20260506032736 51 160 0.0 0.0 0.00 0.23 0.03 93 1017.5
20260506032230 51 159 0.0 0.0 0.00 0.23 0.03 93 1017.4
20260506031724 51 150 0.0 0.0 0.00 0.24 0.03 93 1017.3
20260506031218 51 149 0.0 0.0 0.00 0.25 0.03 92 1017.2
20260506030937 52 149 0.0 0.0 0.00 0.27 0.03 92 1017.1
20260506030206 52 149 0.0 0.0 0.00 0.28 0.03 92 1017.1
20260506025701 52 149 0.0 0.0 0.00 0.30 0.03 92 1017.0
20260506025155 52 149 0.0 0.0 0.00 0.31 0.03 92 1016.9
20260506024649 52 149 0.0 0.0 0.00 0.33 0.03 92 1016.8
20260506024144 52 149 0.0 0.0 0.00 0.36 0.03 92 1016.9
20260506023637 52 149 0.0 0.9 0.00 0.39 0.03 91 1017.0
20260506023130 52 149 0.0 0.9 0.00 0.40 0.03 91 1017.0
20260506022625 52 159 0.0 0.9 0.00 0.43 0.03 91 1016.9
20260506022119 52 160 0.0 1.7 0.00 0.45 0.03 91 1016.8
20260506021612 52 136 0.0 1.7 0.00 0.47 0.03 91 1016.7
20260506021107 52 229 0.0 0.9 0.00 0.50 0.03 91 1016.7
20260506021048 52 229 0.9 3.5 0.00 0.51 0.03 91 1016.8
20260506020320 52 221 0.9 3.5 0.00 0.52 0.03 91 1016.6
20260506015550 52 158 0.0 2.6 0.00 0.53 0.03 91 1016.5
20260506015043 52 135 0.0 0.9 0.00 0.53 0.03 91 1016.5
20260506014538 52 144 0.0 0.0 0.00 0.53 0.03 91 1016.7
20260506014257 52 143 0.0 0.0 0.00 0.53 0.03 92 1016.8
20260506013752 52 142 0.0 0.0 0.00 0.54 0.03 91 1016.8
20260506013239 52 142 0.0 0.9 0.00 0.55 0.03 91 1016.8
20260506012511 52 142 0.0 0.9 0.00 0.57 0.03 92 1016.9
20260506012006 52 142 0.0 0.9 0.00 0.58 0.03 92 1016.9
20260506011500 52 160 0.0 0.9 0.00 0.60 0.03 92 1016.7
20260506010954 52 160 0.0 0.0 0.00 0.63 0.03 92 1016.8
20260506010449 52 160 0.0 0.9 0.00 0.65 0.03 92 1016.8
20260506005941 52 160 0.0 0.9 0.00 0.67 0.03 92 1016.6
20260506005436 52 160 0.0 0.9 0.00 0.68 0.03 92 1016.6
20260506004930 52 160 0.0 0.9 0.00 0.68 0.03 92 1016.5
20260506004425 52 160 0.0 0.9 0.00 0.68 0.03 92 1016.6
20260506003920 52 153 0.0 0.9 0.00 0.69 0.03 93 1016.5
20260506003414 52 203 0.0 0.9 0.00 0.69 0.03 93 1016.4
20260506002906 52 205 0.0 0.0 0.00 0.70 0.03 93 1016.4
20260506002359 51 205 0.0 0.0 0.00 0.71 0.03 93 1016.2
20260506001854 51 205 0.0 0.9 0.00 0.72 0.03 93 1016.2
20260506001349 51 205 0.0 0.0 0.00 0.73 0.03 93 1016.2
20260506000841 51 205 0.0 1.7 0.00 0.73 0.03 93 1016.4
20260506000335 51 205 0.0 0.9 0.00 0.73 0.03 93 1016.2
20260505235830 51 158 0.0 0.9 0.00 0.73 0.03 92 1016.2
20260505235323 51 158 0.0 0.9 0.00 0.74 0.03 92 1016.2
20260505234818 51 158 0.0 0.9 0.00 0.75 0.03 92 1016.2
20260505234313 51 158 0.0 0.9 0.00 0.76 0.03 92 1016.2
20260505233807 51 158 0.0 0.0 0.00 0.77 0.03 92 1016.2
20260505233300 51 158 0.0 0.0 0.00 0.79 0.03 92 1016.1
20260505232753 51 158 0.0 0.9 0.00 0.80 0.03 92 1016.2
20260505232508 51 158 0.0 0.9 0.00 0.80 0.03 91 1016.2
20260505231744 51 158 0.0 0.9 0.01 0.82 0.03 92 1016.2
20260505231236 51 158 0.0 0.9 0.01 0.84 0.03 91 1016.2
20260505230730 51 138 0.0 0.9 0.01 0.87 0.03 91 1016.2
20260505230223 51 149 0.0 0.9 0.01 0.88 0.03 92 1016.2
20260505225946 51 149 0.0 0.9 0.01 0.90 0.03 92 1016.2
20260505225211 51 143 0.0 0.9 0.01 0.92 0.03 92 1016.2
20260505224706 51 159 0.0 1.7 0.01 0.93 0.03 93 1016.2
20260505224201 51 256 0.0 1.7 0.01 0.94 0.03 93 1016.2
20260505223655 51 149 0.0 0.9 0.01 0.96 0.03 93 1016.2
20260505223634 51 203 0.0 0.9 0.01 0.97 0.03 93 1016.2
20260505222641 51 225 0.0 0.9 0.01 0.98 0.03 93 1016.4
20260505222355 51 242 0.0 1.7 0.01 0.99 0.03 93 1016.4
20260505221857 51 207 0.0 1.7 0.00 1.00 0.02 93 1016.4
20260505221136 51 217 0.0 1.7 0.00 1.00 0.02 93 1016.4
20260505220639 51 208 0.0 1.7 0.00 1.01 0.02 93 1016.4
20260505220137 51 262 0.0 1.7 0.00 1.01 0.02 93 1016.4
20260505215637 51 217 0.0 1.7 0.00 1.01 0.02 93 1016.4
20260505215355 51 285 0.0 1.7 0.00 1.01 0.02 92 1016.5
20260505214634 51 198 0.0 0.9 0.00 1.02 0.02 92 1016.5
20260505214401 51 181 0.0 1.7 0.00 1.02 0.02 92 1016.5
20260505213632 51 201 0.0 1.7 0.00 1.02 0.02 91 1016.5
20260505213353 51 285 0.0 1.7 0.00 1.03 0.02 91 1016.4
20260505212634 51 204 0.0 2.6 0.00 1.05 0.02 91 1016.5
20260505212132 51 198 0.0 2.6 0.00 1.06 0.02 91 1016.5
20260505211632 52 204 0.0 2.6 0.00 1.07 0.02 91 1016.5
20260505211132 52 195 0.0 2.6 0.00 1.08 0.02 90 1016.5
20260505210852 52 85 0.9 3.5 0.00 1.08 0.02 90 1016.4
20260505210135 52 201 0.9 3.5 0.00 1.08 0.02 89 1016.2
20260505205635 52 240 0.9 3.5 0.00 1.09 0.02 89 1016.2
20260505205129 52 204 0.0 2.6 0.00 1.09 0.02 89 1016.2
20260505204623 52 212 0.0 1.7 0.00 1.09 0.02 89 1016.2
20260505204116 52 187 0.0 1.7 0.00 1.09 0.02 89 1016.2
20260505203610 53 160 0.0 0.9 0.00 1.09 0.02 90 1016.2
20260505203325 52 123 0.0 0.9 0.00 1.09 0.02 89 1016.1
20260505202559 52 217 0.0 0.9 0.00 1.10 0.02 90 1016.1
20260505202054 52 219 0.0 0.9 0.00 1.11 0.02 90 1016.1
20260505201548 52 215 0.0 1.7 0.00 1.11 0.02 90 1016.1
20260505201040 51 218 0.0 1.7 0.00 1.12 0.02 90 1016.2
20260505200534 51 277 0.0 1.7 0.00 1.12 0.02 91 1016.2
20260505200029 51 191 0.0 3.5 0.00 1.12 0.02 91 1016.1
20260505195523 51 267 0.9 3.5 0.00 1.13 0.02 91 1016.1
20260505195016 51 311 0.0 2.6 0.00 1.14 0.02 92 1016.2
20260505194510 51 215 0.0 1.7 0.00 1.15 0.02 93 1016.2
20260505194004 51 208 0.0 1.7 0.00 1.16 0.02 93 1016.4
20260505193721 51 134 0.0 1.7 0.00 1.17 0.02 93 1016.2
20260505192952 51 135 0.0 1.7 0.00 1.17 0.02 94 1016.2
20260505192711 51 193 0.0 0.9 0.00 1.18 0.02 94 1016.2
20260505192206 51 159 0.0 0.9 0.00 1.18 0.02 95 1016.2
20260505191434 51 148 0.0 3.5 0.00 1.18 0.02 95 1016.2
20260505191147 51 187 0.0 3.5 0.00 1.18 0.02 95 1016.1
20260505190424 51 201 0.0 1.7 0.00 1.18 0.02 95 1016.1
20260505185916 51 145 0.0 0.9 0.00 1.18 0.02 95 1016.0
20260505185411 51 200 0.0 1.7 0.00 1.18 0.02 95 1016.0
20260505184905 51 219 0.0 1.7 0.00 1.18 0.02 95 1016.1
20260505184359 51 212 0.9 1.7 0.00 1.18 0.02 95 1016.0
20260505183852 51 129 0.0 2.6 0.00 1.18 0.02 95 1015.9
20260505183346 51 214 0.0 2.6 0.00 1.18 0.02 95 1016.0
20260505182841 51 198 0.0 2.6 0.00 1.18 0.02 95 1015.9
20260505182600 51 201 0.9 3.5 0.00 1.18 0.02 95 1015.9
20260505182055 50 150 0.9 3.5 0.00 1.18 0.02 95 1015.9
20260505181541 51 141 0.0 2.6 0.00 1.18 0.02 95 1015.9
20260505180817 51 176 0.9 2.6 0.00 1.18 0.02 95 1015.8
20260505180310 50 128 0.9 2.6 0.00 1.18 0.02 95 1015.8
20260505175805 50 145 0.9 2.6 0.00 1.18 0.02 95 1015.8
20260505175258 51 156 0.0 3.5 0.00 1.18 0.02 95 1015.8
20260505174752 50 217 0.0 3.5 0.00 1.18 0.02 95 1015.7
20260505174247 51 211 0.0 2.6 0.00 1.18 0.02 95 1015.7
20260505173742 51 174 0.0 1.7 0.00 1.18 0.02 95 1015.6
20260505173235 51 150 0.9 2.6 0.00 1.18 0.02 95 1015.6
20260505172729 51 208 0.0 2.6 0.00 1.18 0.02 95 1015.5
20260505172222 51 203 0.0 2.6 0.00 1.18 0.02 96 1015.5
20260505171718 50 224 0.9 2.6 0.00 1.18 0.02 95 1015.4
20260505171211 50 193 0.0 2.6 0.00 1.19 0.02 96 1015.5
20260505170705 50 200 0.0 1.7 0.00 1.19 0.02 96 1015.5
20260505170159 50 292 0.0 2.6 0.00 1.19 0.02 96 1015.5
20260505165653 50 200 0.0 2.6 0.00 1.19 0.02 96 1015.5
20260505165628 50 158 0.0 0.9 0.00 1.19 0.02 96 1015.5
20260505164641 50 206 0.0 1.7 0.00 1.19 0.02 96 1015.5
20260505164624 49 200 0.0 1.7 0.00 1.19 0.02 96 1015.5
20260505163629 49 215 0.0 1.7 0.00 1.19 0.02 96 1015.4
20260505163123 49 217 0.0 1.7 0.00 1.20 0.02 96 1015.4
20260505162837 49 214 0.0 0.9 0.00 1.21 0.02 96 1015.5
20260505162111 49 197 0.0 0.9 0.00 1.22 0.02 96 1015.4
20260505161606 49 173 0.0 1.7 0.00 1.23 0.02 96 1015.4
20260505161100 49 210 0.0 1.7 0.00 1.24 0.02 96 1015.4
20260505160813 49 145 0.0 1.7 0.00 1.26 0.02 96 1015.4
20260505153012 47 145 0.0 0.9 0.00 1.26 0.02 96 1015.3
20260505152504 47 145 0.0 0.0 0.00 1.26 0.02 96 1015.3
20260505151959 47 145 0.0 0.9 0.00 1.26 0.02 96 1015.3
20260505151452 47 127 0.0 0.9 0.00 1.26 0.02 96 1015.2
20260505150947 47 219 0.0 0.9 0.00 1.26 0.02 96 1015.2
20260505150443 47 222 0.0 0.9 0.00 1.26 0.02 96 1015.1
20260505140329 44 117 0.0 0.9 0.00 1.26 0.02 96 1014.7
20260505130216 44 142 0.0 0.0 0.00 1.26 0.02 96 1014.6
20260505124932 44 143 0.0 0.0 0.00 1.26 0.02 96 1014.6
20260505124153 44 142 0.0 0.9 0.00 1.26 0.02 96 1014.6
20260505123648 44 142 0.0 0.9 0.00 1.26 0.02 96 1014.6
20260505123141 44 142 0.0 0.0 0.00 1.26 0.02 96 1014.4
20260505122634 44 142 0.0 0.0 0.00 1.26 0.02 96 1014.4
20260505122129 44 142 0.0 0.0 0.00 1.26 0.02 96 1014.4
20260505121847 44 142 0.0 0.0 0.00 1.26 0.02 96 1014.3
20260505121117 44 142 0.0 0.0 0.00 1.26 0.02 96 1014.4
20260505120611 44 142 0.0 0.0 0.00 1.26 0.02 96 1014.3
20260505120105 44 142 0.0 0.0 0.00 1.26 0.02 96 1014.4
20260505115559 44 143 0.0 0.0 0.00 1.26 0.02 96 1014.3
20260505115052 44 142 0.0 0.0 0.00 1.26 0.02 96 1014.4
20260505114547 44 142 0.0 0.0 0.00 1.26 0.02 96 1014.5
20260505114042 44 142 0.0 0.0 0.00 1.26 0.02 96 1014.5
20260505114017 44 142 0.0 0.0 0.00 1.26 0.02 96 1014.4
20260505113030 44 143 0.0 0.0 0.00 1.26 0.02 96 1014.5
20260505113020 45 142 0.0 0.0 0.00 1.26 0.02 96 1014.6
20260505112017 45 143 0.0 0.0 0.00 1.26 0.02 96 1014.5
20260505111510 45 142 0.0 0.0 0.00 1.26 0.02 96 1014.6
20260505111006 45 142 0.0 0.0 0.00 1.26 0.02 96 1014.6
20260505110501 45 143 0.0 0.0 0.00 1.26 0.02 96 1014.6
20260505101904 46 142 0.0 0.0 0.00 1.26 0.02 96 1014.5
20260505101400 46 142 0.0 0.9 0.00 1.26 0.02 96 1014.7
20260505100852 46 143 0.0 0.9 0.00 1.26 0.02 96 1014.7
20260505100347 46 143 0.0 0.0 0.00 1.26 0.02 96 1014.8
20260505095840 46 142 0.0 0.0 0.00 1.26 0.02 96 1014.8
20260505095830 46 142 0.0 0.0 0.00 1.26 0.02 96 1015.0
20260505094828 46 142 0.0 0.0 0.00 1.26 0.02 96 1014.6
20260505094322 46 143 0.0 0.0 0.00 1.26 0.02 96 1014.7
20260505093816 46 142 0.0 0.0 0.00 1.26 0.02 96 1015.1
20260505093310 46 142 0.0 0.0 0.01 1.26 0.02 96 1015.2
20260505092805 46 142 0.0 0.0 0.01 1.26 0.02 96 1015.2